| time (UTC) | temp F | wind direction | speed knots | gust knots | rain 1hr in | rain 24hr in | rain mn in | humidity % | barometer mb |
| 20260831081838 | 45 | 301 | 0.0 | 1.7 | 0.00 | 0.00 | 0.00 | 87 | 1014.6 |
| 20260831080342 | 45 | 200 | 0.0 | 0.0 | 0.00 | 0.00 | 0.00 | 87 | 1014.3 |
| 20260831074851 | 46 | 200 | 0.0 | 0.0 | 0.00 | 0.00 | 0.00 | 86 | 1014.5 |
| 20260831073333 | 47 | 200 | 0.0 | 0.0 | 0.00 | 0.00 | 0.00 | 85 | 1014.5 |
| 20260831071828 | 47 | 200 | 0.0 | 0.0 | 0.00 | 0.00 | 0.00 | 85 | 1014.5 |
| 20260831070414 | 48 | 196 | 0.0 | 0.0 | 0.00 | 0.00 | 0.00 | 84 | 1014.3 |
| 20260831064829 | 48 | 196 | 0.0 | 0.0 | 0.00 | 0.00 | 0.00 | 83 | 1014.5 |
| 20260831063337 | 49 | 196 | 0.0 | 0.0 | 0.00 | 0.00 | 0.00 | 83 | 1014.4 |
| 20260831061839 | 49 | 196 | 0.0 | 0.9 | 0.00 | 0.00 | 0.00 | 83 | 1014.6 |
| 20260831060350 | 49 | 223 | 0.0 | 0.0 | 0.00 | 0.00 | 0.00 | 82 | 1014.5 |
| 20260831054840 | 50 | 147 | 0.0 | 0.0 | 0.00 | 0.00 | 0.00 | 81 | 1014.7 |
| 20260831053402 | 50 | 188 | 0.0 | 1.7 | 0.00 | 0.00 | 0.00 | 80 | 1014.8 |
| 20260831051838 | 51 | 307 | 0.0 | 0.0 | 0.00 | 0.00 | 0.00 | 80 | 1014.8 |
| 20260831050333 | 51 | 272 | 0.0 | 0.0 | 0.00 | 0.00 | 0.00 | 78 | 1014.8 |
| 20260831044919 | 52 | 163 | 0.0 | 0.0 | 0.00 | 0.00 | 0.00 | 77 | 1015.0 |
| 20260831043401 | 53 | 163 | 0.0 | 0.0 | 0.00 | 0.00 | 0.00 | 76 | 1015.0 |
| 20260831041903 | 54 | 213 | 0.0 | 0.0 | 0.00 | 0.00 | 0.00 | 74 | 1015.1 |
| 20260831040330 | 54 | 286 | 0.0 | 0.0 | 0.00 | 0.00 | 0.00 | 72 | 1015.0 |
| 20260831034900 | 55 | 315 | 0.0 | 0.0 | 0.00 | 0.00 | 0.00 | 70 | 1015.0 |
| 20260831033327 | 56 | 315 | 0.0 | 0.0 | 0.00 | 0.00 | 0.00 | 70 | 1015.0 |
| 20260831031852 | 57 | 315 | 0.0 | 0.0 | 0.00 | 0.00 | 0.00 | 69 | 1015.1 |
| 20260831030336 | 57 | 315 | 0.0 | 0.0 | 0.00 | 0.00 | 0.00 | 68 | 1014.8 |
| 20260831024837 | 58 | 315 | 0.0 | 0.0 | 0.00 | 0.00 | 0.00 | 66 | 1014.7 |
| 20260831023358 | 59 | 315 | 0.0 | 0.0 | 0.00 | 0.00 | 0.00 | 65 | 1014.4 |
| 20260831021859 | 60 | 315 | 0.0 | 0.0 | 0.00 | 0.00 | 0.00 | 63 | 1014.2 |
| 20260831020334 | 61 | 315 | 0.0 | 0.0 | 0.00 | 0.00 | 0.00 | 61 | 1014.1 |
| 20260831014839 | 62 | 315 | 0.0 | 0.0 | 0.00 | 0.00 | 0.00 | 60 | 1013.9 |
| 20260831013327 | 62 | 333 | 0.0 | 1.7 | 0.00 | 0.00 | 0.00 | 58 | 1013.9 |
| 20260831011841 | 63 | 355 | 0.0 | 1.7 | 0.00 | 0.00 | 0.00 | 58 | 1013.7 |
| 20260831010353 | 64 | 9 | 0.0 | 1.7 | 0.00 | 0.00 | 0.00 | 56 | 1013.6 |
| 20260831004840 | 65 | 325 | 0.0 | 1.7 | 0.00 | 0.00 | 0.00 | 55 | 1013.6 |
| 20260831003354 | 65 | 321 | 0.9 | 2.6 | 0.00 | 0.00 | 0.00 | 54 | 1013.5 |
| 20260831001835 | 66 | 310 | 0.0 | 2.6 | 0.00 | 0.00 | 0.00 | 52 | 1013.4 |
| 20260831000340 | 68 | 9 | 0.0 | 2.6 | 0.00 | 0.00 | 0.00 | 48 | 1013.2 |
| 20260830234828 | 67 | 355 | 0.0 | 2.6 | 0.00 | 0.00 | 0.00 | 48 | 1013.1 |
| 20260830233341 | 68 | 43 | 0.0 | 3.5 | 0.00 | 0.00 | 0.00 | 48 | 1013.0 |
| 20260830231836 | 69 | 300 | 0.0 | 5.2 | 0.00 | 0.00 | 0.00 | 46 | 1012.9 |
| 20260830230351 | 71 | 15 | 0.0 | 1.7 | 0.00 | 0.00 | 0.00 | 45 | 1012.7 |
| 20260830224856 | 71 | 271 | 0.0 | 5.2 | 0.00 | 0.00 | 0.00 | 46 | 1012.5 |
| 20260830223331 | 72 | 9 | 0.0 | 8.7 | 0.00 | 0.00 | 0.00 | 47 | 1012.4 |
| 20260830221909 | 73 | 33 | 0.9 | 4.3 | 0.00 | 0.00 | 0.00 | 50 | 1012.5 |
| 20260830220342 | 72 | 231 | 0.0 | 1.7 | 0.00 | 0.00 | 0.00 | 49 | 1012.4 |
| 20260830214857 | 70 | 256 | 0.0 | 2.6 | 0.00 | 0.00 | 0.00 | 51 | 1012.4 |
| 20260830213346 | 69 | 130 | 0.0 | 1.7 | 0.00 | 0.00 | 0.00 | 51 | 1012.4 |
| 20260830211839 | 68 | 134 | 0.0 | 2.6 | 0.00 | 0.00 | 0.00 | 53 | 1012.4 |
| 20260830210329 | 67 | 182 | 0.9 | 2.6 | 0.00 | 0.00 | 0.00 | 55 | 1012.8 |
| 20260830204843 | 67 | 83 | 0.0 | 1.7 | 0.00 | 0.00 | 0.00 | 58 | 1013.1 |
| 20260830203344 | 64 | 309 | 0.0 | 1.7 | 0.00 | 0.00 | 0.00 | 62 | 1013.5 |
| 20260830201848 | 61 | 311 | 0.0 | 3.5 | 0.00 | 0.00 | 0.00 | 65 | 1014.2 |
| 20260830200331 | 58 | 301 | 0.9 | 5.2 | 0.00 | 0.00 | 0.00 | 77 | 1014.7 |
| 20260830194835 | 56 | 17 | 0.0 | 1.7 | 0.00 | 0.00 | 0.00 | 76 | 1014.3 |
| 20260830193344 | 56 | 28 | 0.9 | 8.7 | 0.00 | 0.00 | 0.00 | 72 | 1014.7 |
| 20260830191901 | 58 | 165 | 2.6 | 7.0 | 0.00 | 0.00 | 0.00 | 64 | 1015.1 |
| 20260830190345 | 58 | 220 | 1.7 | 8.7 | 0.00 | 0.00 | 0.00 | 62 | 1014.9 |
| 20260830184845 | 60 | 350 | 2.6 | 11.3 | 0.00 | 0.00 | 0.00 | 59 | 1014.3 |
| 20260830183351 | 65 | 360 | 1.7 | 8.7 | 0.00 | 0.00 | 0.00 | 58 | 1013.6 |
| 20260830181838 | 66 | 328 | 0.9 | 7.0 | 0.00 | 0.00 | 0.00 | 58 | 1012.9 |
| 20260830180355 | 68 | 5 | 0.0 | 9.6 | 0.00 | 0.00 | 0.00 | 56 | 1012.5 |
| 20260830174829 | 70 | 304 | 0.9 | 5.2 | 0.00 | 0.00 | 0.00 | 52 | 1012.0 |
| 20260830173350 | 71 | 19 | 0.0 | 4.3 | 0.00 | 0.00 | 0.00 | 50 | 1011.8 |
| 20260830171833 | 72 | 355 | 2.6 | 3.5 | 0.00 | 0.00 | 0.00 | 50 | 1011.9 |
| 20260830170359 | 71 | 277 | 0.9 | 2.6 | 0.00 | 0.00 | 0.00 | 51 | 1011.8 |
| 20260830164909 | 71 | 297 | 0.0 | 1.7 | 0.00 | 0.00 | 0.00 | 51 | 1011.7 |
| 20260830163327 | 71 | 252 | 0.9 | 1.7 | 0.00 | 0.00 | 0.00 | 51 | 1011.8 |
| 20260830161838 | 71 | 144 | 0.0 | 1.7 | 0.00 | 0.00 | 0.00 | 53 | 1011.7 |
| 20260830160348 | 69 | 338 | 0.0 | 1.7 | 0.00 | 0.00 | 0.00 | 55 | 1011.7 |
| 20260830154848 | 66 | 130 | 0.0 | 1.7 | 0.00 | 0.00 | 0.00 | 59 | 1011.8 |
| 20260830153411 | 63 | 239 | 0.0 | 1.7 | 0.00 | 0.00 | 0.00 | 63 | 1011.7 |
| 20260830151905 | 60 | 277 | 0.0 | 1.7 | 0.00 | 0.00 | 0.00 | 72 | 1011.8 |
| 20260830150330 | 58 | 235 | 0.0 | 0.9 | 0.00 | 0.00 | 0.00 | 74 | 1011.8 |
| 20260830144828 | 57 | 138 | 0.0 | 1.7 | 0.00 | 0.00 | 0.00 | 75 | 1011.7 |
| 20260830143327 | 57 | 132 | 0.0 | 1.7 | 0.00 | 0.00 | 0.00 | 76 | 1011.8 |
| 20260830141835 | 56 | 130 | 0.0 | 1.7 | 0.00 | 0.00 | 0.00 | 80 | 1011.9 |
| 20260830140344 | 54 | 134 | 0.0 | 0.0 | 0.00 | 0.00 | 0.00 | 83 | 1011.8 |
| 20260830134843 | 53 | 151 | 0.0 | 0.0 | 0.00 | 0.00 | 0.00 | 83 | 1012.0 |
| 20260830133337 | 53 | 206 | 0.0 | 0.0 | 0.00 | 0.00 | 0.00 | 85 | 1011.8 |
| 20260830131841 | 53 | 206 | 0.0 | 0.0 | 0.00 | 0.00 | 0.00 | 85 | 1011.8 |
| 20260830130354 | 53 | 206 | 0.0 | 0.0 | 0.00 | 0.00 | 0.00 | 83 | 1011.8 |
| 20260830124827 | 52 | 206 | 0.0 | 0.0 | 0.00 | 0.00 | 0.00 | 84 | 1011.3 |
| 20260830123330 | 52 | 306 | 0.0 | 0.0 | 0.00 | 0.00 | 0.00 | 84 | 1011.2 |
| 20260830121839 | 52 | 306 | 0.0 | 0.0 | 0.00 | 0.00 | 0.00 | 83 | 1011.2 |
| 20260830120328 | 51 | 184 | 0.0 | 0.0 | 0.00 | 0.00 | 0.00 | 84 | 1010.6 |
| 20260830114843 | 51 | 261 | 0.0 | 0.0 | 0.00 | 0.00 | 0.00 | 83 | 1010.7 |
| 20260830113328 | 51 | 192 | 0.0 | 0.0 | 0.00 | 0.00 | 0.00 | 83 | 1011.0 |
| 20260830111912 | 51 | 192 | 0.0 | 0.0 | 0.00 | 0.00 | 0.00 | 83 | 1010.8 |
| 20260830110337 | 51 | 192 | 0.0 | 0.0 | 0.00 | 0.00 | 0.00 | 83 | 1011.0 |
| 20260830104853 | 51 | 178 | 0.0 | 0.0 | 0.00 | 0.00 | 0.00 | 82 | 1010.7 |
| 20260830103350 | 52 | 194 | 0.0 | 0.0 | 0.00 | 0.00 | 0.00 | 82 | 1010.7 |
| 20260830101839 | 52 | 186 | 0.0 | 0.0 | 0.00 | 0.00 | 0.00 | 82 | 1010.8 |
| 20260830100336 | 52 | 186 | 0.0 | 0.0 | 0.00 | 0.00 | 0.00 | 82 | 1010.7 |
| 20260830094843 | 52 | 186 | 0.0 | 0.0 | 0.00 | 0.00 | 0.00 | 83 | 1010.7 |
| 20260830093349 | 53 | 186 | 0.0 | 0.0 | 0.00 | 0.00 | 0.00 | 83 | 1010.8 |
| 20260830091854 | 53 | 186 | 0.0 | 0.0 | 0.00 | 0.00 | 0.00 | 82 | 1010.7 |
| 20260830090331 | 53 | 193 | 0.0 | 0.0 | 0.00 | 0.00 | 0.00 | 82 | 1010.8 |
| 20260830084826 | 53 | 170 | 0.0 | 0.0 | 0.00 | 0.00 | 0.00 | 84 | 1010.7 |
| 20260830083348 | 53 | 170 | 0.0 | 0.0 | 0.00 | 0.00 | 0.00 | 85 | 1010.9 |